Flag for Turkmenistan Weather past 2 weeks in Ashgabat, Turkmenistan

Now
90 °F

Sunny.


Feels Like: 86 °F
Forecast: 75 / 99 °F
Wind: 3 mph from West

Location: Ashgabat

Current Time: Jul 23, 2014 at 10:05:18 PM

Latest Report: Jul 23, 2014 at 9:00 PM


Visibility: N/A

Pressure: 29.80 "Hg

Humidity: 14%

Dew point: 34 °F

Location of AshgabatLocation

Historic Weather in Ashgabat — Graph

°F

Ashgabat temperature yesterday

Maximum temperature yesterday: 100 °F (at 5:00 PM)
Minimum temperature yesterday: 82 °F (at 5:00 AM)
Average temperature yesterday: 91 °F

Past Weeks' High & Low Weather Summary

 TemperatureHumidityPressure
High108 °F (Jul 13, 5:00 PM)48% (Jul 10, 6:00 AM)29.92 "Hg (Jul 10, 6:00 AM)
Low68 °F (Jul 18, 6:00 AM)7% (Jul 15, 3:00 PM)29.50 "Hg (Jul 20, 2:00 AM)
Average92 °F20%29.72 "Hg
* Reported Jul 8 9:00 PM — Jul 23 9:00 PM, Ashgabat, Weather by CustomWeather, © 2014

Note: Actual official high and low records may vary slightly from our data, if they occured in-between our weather recording intervals... More about our weather records

Advertising

Ashgabat weather history for previous 24 hours

 ConditionsComfort  
Time TempWeatherWind HumidityBarometerVisibility
9:00 PM
Jul 23
90 °FSunny.3 mph14%29.80 "HgN/A
8:30 PM93 °FSunny.3 mph12%29.80 "HgN/A
8:00 PM95 °FSunny.6 mph11%29.80 "HgN/A
7:30 PM97 °FSunny.6 mph9%29.80 "HgN/A
7:00 PM97 °FSunny.8 mph10%29.80 "HgN/A
6:30 PM99 °FSunny.3 mph9%29.77 "HgN/A
6:00 PM99 °FSunny.6 mph10%29.77 "HgN/A
5:00 PM99 °FSunny.8 mph10%29.80 "HgN/A
4:00 PM99 °FSunny.8 mph10%29.80 "HgN/A
3:00 PM99 °FSunny.8 mph10%29.80 "HgN/A
2:00 PM95 °FSunny.13 mph11%29.83 "HgN/A
1:00 PM95 °FSunny.17 mph12%29.83 "HgN/A
11:00 AM90 °FSunny.20 mph22%29.83 "Hg6 mi
10:00 AM88 °FSunny.20 mph22%29.83 "HgN/A
9:30 AM86 °FSunny.13 mph15%29.83 "HgN/A
9:00 AM84 °FSunny.15 mph15%29.83 "HgN/A
8:30 AM82 °FPassing clouds.13 mph16%29.83 "HgN/A
8:00 AM81 °FScattered clouds.15 mph17%29.83 "HgN/A
7:30 AM81 °FScattered clouds.17 mph21%29.80 "HgN/A
7:00 AM79 °FPassing clouds.8 mph21%29.80 "HgN/A
6:30 AM79 °FPassing clouds.10 mph23%29.80 "HgN/A
6:00 AM79 °FPassing clouds.8 mph28%29.77 "HgN/A
5:30 AM79 °FPleasantly warm.8 mph26%29.77 "HgN/A
5:00 AM79 °FPassing clouds.10 mph32%29.74 "HgN/A
10:00 PM
Jul 22
90 °FPassing clouds.13 mph41%29.68 "HgN/A
Weather by CustomWeather, © 2014

See weather overviewHow to use our weather pages